KB9ZI Weather Reports


time (UTC)temp
F
wind
direction
speed
knots
gust
knots
rain 1hr
in
rain 24hr
in
rain mn
in
humidity
%
barometer
mb
20260831191427 89 186 0.0 3.5 0.00 0.00 0.00 57 1010.9
20260831191337 89 185 0.0 3.5 0.00 0.00 0.00 56 1011.0
20260831191327 89 185 0.0 3.5 0.00 0.00 0.00 56 1011.0
20260831191120 89 152 0.0 3.5 0.00 0.00 0.00 55 1010.9
20260831191110 89 185 0.0 3.5 0.00 0.00 0.00 55 1010.9
20260831191043 89 152 0.0 3.5 0.00 0.00 0.00 55 1010.9
20260831190732 89 152 0.0 3.5 0.00 0.00 0.00 55 1010.9
20260831190426 90 111 0.0 3.5 0.00 0.00 0.00 56 1010.9
20260831190337 90 183 0.0 1.7 0.00 0.00 0.00 59 1010.9
20260831190328 90 185 0.0 1.7 0.00 0.00 0.00 58 1010.9
20260831190134 90 147 0.0 1.7 0.00 0.00 0.00 58 1010.8
20260831190118 90 103 0.0 1.7 0.00 0.00 0.00 61 1011.0
20260831190040 90 147 0.0 1.7 0.00 0.00 0.00 58 1010.8
20260831185628 90 147 0.0 1.7 0.00 0.00 0.00 59 1010.9
20260831185429 90 145 0.0 3.5 0.00 0.00 0.00 64 1010.9
20260831185336 89 148 0.0 3.5 0.00 0.00 0.00 63 1010.9
20260831185329 90 145 0.0 3.5 0.00 0.00 0.00 64 1011.0
20260831185116 89 144 0.0 3.5 0.00 0.00 0.00 66 1010.8
20260831185105 89 147 0.0 3.5 0.00 0.00 0.00 66 1011.0
20260831184627 89 147 0.0 3.5 0.00 0.00 0.00 67 1011.0
20260831184427 88 147 0.0 3.5 0.00 0.00 0.00 68 1010.9
20260831184327 88 145 0.0 3.5 0.00 0.00 0.00 66 1010.9
20260831184226 88 145 0.0 3.5 0.00 0.00 0.00 64 1011.0
20260831184028 88 213 0.0 3.5 0.00 0.00 0.00 67 1010.9
20260831183934 88 219 0.0 3.5 0.00 0.00 0.00 70 1010.9
20260831183829 88 219 0.0 3.5 0.00 0.00 0.00 70 1010.9
20260831183654 88 210 0.0 3.5 0.00 0.00 0.00 64 1010.8
20260831183628 88 154 0.0 3.5 0.00 0.00 0.00 66 1010.9
20260831183615 89 210 0.0 3.5 0.00 0.00 0.00 67 1010.9
20260831183226 89 210 0.0 3.5 0.00 0.00 0.00 66 1010.9
20260831183029 89 0 0.0 2.6 0.00 0.00 0.00 71 1010.9
20260831182829 88 0 0.0 3.5 0.00 0.00 0.00 70 1010.9
20260831182732 88 0 0.0 3.5 0.00 0.00 0.00 66 1010.8
20260831182629 88 0 0.0 3.5 0.00 0.00 0.00 66 1010.8
20260831182618 88 0 0.0 3.5 0.00 0.00 0.00 66 1010.9
20260831182556 88 0 0.0 3.5 0.00 0.00 0.00 69 1010.9
20260831182028 88 0 0.0 3.5 0.00 0.00 0.00 66 1010.9
20260831181829 87 207 0.0 3.5 0.00 0.00 0.00 69 1010.8
20260831181634 87 207 0.0 2.6 0.00 0.00 0.00 67 1010.9
20260831181629 87 206 0.0 3.5 0.00 0.00 0.00 68 1010.8
20260831181620 87 188 0.0 2.6 0.00 0.00 0.00 68 1010.9
20260831181558 87 207 0.0 3.5 0.00 0.00 0.00 68 1010.8
20260831181031 87 186 0.0 2.6 0.00 0.00 0.00 67 1010.9
20260831180935 87 186 0.0 2.6 0.00 0.00 0.00 71 1010.8
20260831180828 87 186 0.0 2.6 0.00 0.00 0.00 71 1010.8
20260831180627 87 186 0.0 2.6 0.00 0.00 0.00 71 1010.8
20260831180428 86 238 0.0 1.7 0.00 0.00 0.00 73 1010.8
20260831180328 86 238 0.0 1.7 0.00 0.00 0.00 73 1010.9
20260831180228 86 238 0.0 1.7 0.00 0.00 0.00 73 1011.0
20260831180029 0 237 0.0 0.0 0.00 0.00 0.00 1011.0
20260831175934 0 0.0 0.0 0.00 0.00 0.00 1011.0
20260831175828 0 0.0 0.0 0.00 0.00 0.00 1011.0
20260831175536 0 0.0 0.0 0.00 0.00 0.00
20260831175438 0 0.0 0.0 0.00 0.00 0.00
20260831175335 0 0.0 0.0 0.00 0.00 0.00
20260831175107 0 0.0 0.0 0.00 0.00 0.00
20260831175008 0 0.0 0.0 0.00 0.00 0.00
20260831174805 0 0.0 0.0 0.00 0.00 0.00
20260831174707 0 0.0 0.0 0.00 0.00 0.00
20260831174606 0 0.0 0.0 0.00 0.00 0.00
20260831174303 0 0.0 0.0 0.00 0.00 0.00 1011.2
20260831174235 0 0.0 0.0 0.00 0.00 0.00 1011.2
20260831174035 0 0.0 0.0 0.00 0.00 0.00 1011.2
20260831173837 85 203 0.0 1.7 0.00 0.00 0.00 79 1011.2
20260831173802 85 203 0.0 1.7 0.00 0.00 0.00 79 1011.2
20260831173635 85 203 0.0 1.7 0.00 0.00 0.00 79 1011.2
20260831173507 85 203 0.0 3.5 0.00 0.00 0.00 79 1011.1
20260831173210 85 203 0.0 3.5 0.00 0.00 0.00 79 1011.1
20260831173110 85 203 0.0 3.5 0.00 0.00 0.00 79 1011.2
20260831172810 85 203 0.0 3.5 0.00 0.00 0.00 79 1011.2
20260831172729 85 220 0.0 3.5 0.00 0.00 0.00 80 1011.4
20260831172608 85 219 0.0 3.5 0.00 0.00 0.00 79 1011.4
20260831172410 85 231 0.0 3.5 0.00 0.00 0.00 78 1011.4
20260831172211 85 162 0.0 2.6 0.00 0.00 0.00 78 1011.4
20260831172107 85 155 0.0 2.6 0.00 0.00 0.00 80 1011.2
20260831171813 85 157 0.0 2.6 0.00 0.00 0.00 80 1011.4
20260831171716 85 250 0.0 3.5 0.00 0.00 0.00 80 1011.2
20260831171712 85 252 0.0 3.5 0.00 0.00 0.00 79 1011.4
20260831171409 84 251 0.0 3.5 0.00 0.00 0.00 78 1011.2
20260831171210 85 262 0.0 3.5 0.00 0.00 0.00 80 1011.2
20260831171014 85 264 0.0 4.3 0.00 0.00 0.00 81 1011.4
20260831171010 85 262 0.0 4.3 0.00 0.00 0.00 80 1011.2
20260831170939 84 265 0.0 4.3 0.00 0.00 0.00 79 1011.4
20260831170610 85 264 0.0 4.3 0.00 0.00 0.00 80 1011.4
20260831170411 85 179 0.0 4.3 0.00 0.00 0.00 81 1011.2
20260831170213 85 179 0.0 4.3 0.00 0.00 0.00 79 1011.2
20260831170019 85 165 0.0 1.7 0.00 0.00 0.00 79 1011.4
20260831170014 85 171 0.0 3.5 0.00 0.00 0.00 80 1011.4
20260831170006 85 166 0.0 1.7 0.00 0.00 0.00 81 1011.4
20260831165937 85 165 0.0 1.7 0.00 0.00 0.00 80 1011.4
20260831165512 85 166 0.0 1.7 0.00 0.00 0.00 81 1011.2
20260831165214 85 166 0.0 1.7 0.00 0.00 0.00 81 1011.2
20260831165011 84 164 0.0 2.6 0.00 0.00 0.00 81 1011.2
20260831165004 84 165 0.0 2.6 0.00 0.00 0.00 81 1011.2
20260831164937 84 165 0.0 2.6 0.00 0.00 0.00 80 1011.1
20260831164610 84 124 0.0 2.6 0.00 0.00 0.00 80 1011.2
20260831164413 84 7 0.0 2.6 0.00 0.00 0.00 81 1011.2
20260831164317 84 148 0.0 2.6 0.00 0.00 0.00 81 1011.0
20260831164213 84 148 0.0 2.6 0.00 0.00 0.00 81 1011.0
20260831164114 84 188 0.0 2.6 0.00 0.00 0.00 81 1011.1
20260831163812 84 186 0.0 2.6 0.00 0.00 0.00 79 1010.9
20260831163713 84 186 0.0 2.6 0.00 0.00 0.00 79 1011.0
20260831163611 85 162 0.0 2.6 0.00 0.00 0.00 80 1011.0
20260831163455 84 161 0.0 2.6 0.00 0.00 0.00 80 1011.0
20260831163449 84 161 0.0 2.6 0.00 0.00 0.00 80 1011.0
20260831163423 84 161 0.0 2.6 0.00 0.00 0.00 80 1011.0
20260831163012 84 162 0.0 2.6 0.00 0.00 0.00 80 1010.9
20260831162811 84 224 0.0 5.2 0.00 0.00 0.00 80 1010.9
20260831162718 84 224 0.0 5.2 0.00 0.00 0.00 80 1011.0
20260831162714 84 224 0.0 5.2 0.00 0.00 0.00 80 1010.9
20260831162458 85 224 0.0 5.2 0.00 0.00 0.00 82 1010.9
20260831162449 84 226 0.0 5.2 0.00 0.00 0.00 80 1011.0
20260831162203 84 219 0.0 5.2 0.00 0.00 0.00 82 1010.9
20260831162000 84 217 0.0 5.2 0.00 0.00 0.00 82 1010.9
20260831161801 84 182 0.0 1.7 0.00 0.00 0.00 83 1010.8
20260831161713 84 180 0.0 2.6 0.00 0.00 0.00 83 1010.8
20260831161605 83 182 0.0 2.6 0.00 0.00 0.00 84 1010.7
20260831161601 84 182 0.0 2.6 0.00 0.00 0.00 84 1010.9
20260831161504 83 182 0.0 2.6 0.00 0.00 0.00 84 1010.6
20260831161446 84 183 0.0 2.6 0.00 0.00 0.00 85 1010.7
20260831161001 83 182 0.0 2.6 0.00 0.00 0.00 85 1010.7
20260831160800 83 182 0.0 2.6 0.00 0.00 0.00 85 1010.8
20260831160726 82 183 0.0 2.6 0.00 0.00 0.00 86 1010.8
20260831160601 82 182 0.0 2.6 0.00 0.00 0.00 85 1010.8
20260831160458 82 182 0.0 1.7 0.00 0.00 0.00 84 1010.8
20260831160444 82 183 0.0 1.7 0.00 0.00 0.00 85 1010.8
20260831160146 82 183 0.0 1.7 0.00 0.00 0.00 84 1010.7
20260831160048 82 185 0.0 1.7 0.00 0.00 0.00 85 1010.7
20260831155839 82 183 0.0 1.7 0.00 0.00 0.00 85 1010.8
20260831155714 82 182 0.0 1.7 0.00 0.00 0.00 85 1010.8
20260831155542 82 185 0.0 1.7 0.00 0.00 0.00 86 1010.8
20260831155342 82 183 0.0 1.7 0.00 0.00 0.00 86 1010.8
20260831155228 82 185 0.0 2.6 0.00 0.00 0.00 84 1010.8
20260831155143 82 182 0.0 2.6 0.00 0.00 0.00 84 1010.9
20260831154931 82 183 0.0 2.6 0.00 0.00 0.00 84 1010.7
20260831154713 82 183 0.0 2.6 0.00 0.00 0.00 84 1010.8
20260831154531 82 183 0.0 2.6 0.00 0.00 0.00 84 1010.7
20260831154414 83 185 0.0 3.5 0.00 0.00 0.00 85 1010.7
20260831154213 83 188 0.0 3.5 0.00 0.00 0.00 86 1010.7
20260831154112 83 185 0.0 3.5 0.00 0.00 0.00 86 1010.8
20260831154016 82 185 0.0 3.5 0.00 0.00 0.00 87 1010.8
20260831153715 82 185 0.0 4.3 0.00 0.00 0.00 86 1010.8
20260831153512 81 188 0.0 4.3 0.00 0.00 0.00 86 1010.9
20260831153311 82 226 0.0 4.3 0.00 0.00 0.00 86 1010.8
20260831153212 82 228 0.0 4.3 0.00 0.00 0.00 86 1010.8
20260831153112 82 228 0.0 4.3 0.00 0.00 0.00 86 1010.7
20260831153013 82 217 0.0 4.3 0.00 0.00 0.00 87 1010.6
20260831152715 82 213 0.0 3.5 0.00 0.00 0.00 88 1010.7
20260831152614 81 209 0.0 3.5 0.00 0.00 0.00 88 1010.6
20260831152311 81 230 0.0 2.6 0.00 0.00 0.00 88 1010.6
20260831152212 81 238 0.0 2.6 0.00 0.00 0.00 88 1010.6
20260831152111 81 240 0.0 2.6 0.00 0.00 0.00 88 1010.6
20260831151912 81 240 0.0 2.6 0.00 0.00 0.00 88 1010.6
20260831151714 81 171 0.0 2.6 0.00 0.00 0.00 89 1010.5
20260831151611 80 168 0.0 2.6 0.00 0.00 0.00 89 1010.5
20260831151311 80 214 0.0 4.3 0.00 0.00 0.00 89 1010.5
20260831151221 80 214 0.0 4.3 0.00 0.00 0.00 89 1010.6
20260831151212 80 214 0.0 4.3 0.00 0.00 0.00 89 1010.6
20260831150913 80 213 0.0 4.3 0.00 0.00 0.00 89 1010.6
20260831150714 80 214 0.0 4.3 0.00 0.00 0.00 89 1010.5
20260831150613 80 195 0.0 4.3 0.00 0.00 0.00 89 1010.6
20260831150312 79 206 0.0 4.3 0.00 0.00 0.00 89 1010.6
20260831150215 80 214 0.0 4.3 0.00 0.00 0.00 90 1010.6
20260831150112 79 223 0.0 4.3 0.00 0.00 0.00 90 1010.6
20260831145913 79 223 0.0 4.3 0.00 0.00 0.00 90 1010.5
20260831145713 79 283 0.0 4.3 0.00 0.00 0.00 90 1010.5
20260831145613 79 216 0.0 4.3 0.00 0.00 0.00 89 1010.6
20260831145312 79 238 0.0 6.1 0.00 0.00 0.00 89 1010.6
20260831145226 79 228 0.0 6.1 0.00 0.00 0.00 90 1010.5
20260831145212 79 217 0.0 6.1 0.00 0.00 0.00 89 1010.5
20260831144911 79 275 0.0 6.1 0.00 0.00 0.00 90 1010.4
20260831144715 79 275 0.0 6.1 0.00 0.00 0.00 90 1010.4
20260831144511 79 202 0.0 6.1 0.00 0.00 0.00 89 1010.3
20260831144312 79 204 0.0 6.1 0.00 0.00 0.00 90 1010.3
20260831144227 78 199 0.0 6.1 0.00 0.00 0.00 90 1010.2
20260831144212 78 204 0.0 6.1 0.00 0.00 0.00 90 1010.2
20260831143911 78 203 0.0 5.2 0.00 0.00 0.00 90 1010.2
20260831143820 78 204 0.0 5.2 0.00 0.00 0.00 90 1010.1
20260831143714 78 204 0.0 5.2 0.00 0.00 0.00 90 1010.1
20260831143511 78 199 0.0 5.2 0.00 0.00 0.00 90 1010.2
20260831143311 78 200 0.0 5.2 0.00 0.00 0.00 90 1010.2
20260831143212 78 234 0.0 3.5 0.00 0.00 0.00 90 1010.1
20260831143112 78 248 0.0 3.5 0.00 0.00 0.00 90 1010.1
20260831142913 78 233 0.0 3.5 0.00 0.00 0.00 91 1010.0
20260831142713 78 237 0.0 2.6 0.00 0.00 0.00 90 1009.9
20260831142512 78 235 0.0 2.6 0.00 0.00 0.00 90 1009.8
20260831142311 78 234 0.0 2.6 0.00 0.00 0.00 91 1009.9
20260831142215 78 234 0.0 2.6 0.00 0.00 0.00 91 1009.9
20260831142111 78 234 0.0 2.6 0.00 0.00 0.00 91 1009.9
20260831141912 78 237 0.0 1.7 0.00 0.00 0.00 91 1009.9
20260831141713 78 235 0.0 2.6 0.00 0.00 0.00 91 1009.8
20260831141615 77 210 0.0 3.5 0.00 0.00 0.00 91 1009.7
20260831141412 77 210 0.0 3.5 0.00 0.00 0.00 91 1009.8
20260831141212 77 210 0.0 3.5 0.00 0.00 0.00 91 1009.9
20260831141112 77 210 0.0 4.3 0.00 0.00 0.00 91 1009.9
20260831140912 77 209 0.0 4.3 0.00 0.00 0.00 91 1009.8
20260831140712 77 209 0.0 4.3 0.00 0.00 0.00 91 1009.8
20260831140512 77 238 0.0 5.2 0.00 0.00 0.00 91 1009.9
20260831140311 77 237 0.0 5.2 0.00 0.00 0.00 91 1009.8
20260831140222 77 231 0.0 5.2 0.00 0.00 0.00 91 1009.8
20260831140210 77 238 0.0 5.2 0.00 0.00 0.00 91 1009.8
20260831140011 77 224 0.0 5.2 0.00 0.00 0.00 91 1009.7
20260831135712 77 216 0.0 5.2 0.00 0.00 0.00 91 1009.6
20260831135512 77 221 0.0 4.3 0.00 0.00 0.00 92 1009.6
20260831135313 77 221 0.0 4.3 0.00 0.00 0.00 92 1009.6
20260831135211 77 226 0.0 4.3 0.00 0.00 0.00 92 1009.5
20260831135111 77 226 0.0 4.3 0.00 0.00 0.00 92 1009.6
20260831134912 77 230 0.0 3.5 0.00 0.00 0.00 92 1009.6
20260831134820 76 233 0.0 3.5 0.00 0.00 0.00 93 1009.7
20260831134711 76 233 0.0 3.5 0.00 0.00 0.00 93 1009.7
20260831134514 76 233 0.0 3.5 0.00 0.00 0.00 93 1009.6
20260831134323 76 234 0.0 4.3 0.00 0.00 0.00 92 1009.4
20260831134312 76 233 0.0 4.3 0.00 0.00 0.00 92 1009.5
20260831134210 76 233 0.0 4.3 0.00 0.00 0.00 92 1009.5
20260831134012 76 188 0.0 5.2 0.00 0.00 0.00 93 1009.4
20260831133955 76 234 0.0 4.3 0.00 0.00 0.00 92 1009.4
20260831133926 76 188 0.0 5.2 0.00 0.00 0.00 93 1009.4
20260831133512 76 189 0.0 5.2 0.00 0.00 0.00 93 1009.4
20260831133312 76 243 0.0 5.2 0.00 0.00 0.00 93 1009.5
20260831133211 76 212 0.0 5.2 0.00 0.00 0.00 93 1009.4
20260831133112 76 210 0.0 5.2 0.00 0.00 0.00 93 1009.4
20260831133047 76 228 0.0 5.2 0.00 0.00 0.00 93 1009.3
20260831132958 76 212 0.0 4.3 0.00 0.00 0.00 94 1009.3
20260831132511 76 237 0.0 4.3 0.00 0.00 0.00 94 1009.2
20260831132309 76 235 0.0 4.3 0.00 0.00 0.00 94 1009.2
20260831132210 76 226 0.0 4.3 0.00 0.00 0.00 94 1009.2
20260831132107 75 206 0.0 4.3 0.00 0.00 0.00 94 1009.2
20260831132002 75 204 0.0 4.3 0.00 0.00 0.00 94 1009.3
20260831131947 75 206 0.0 4.3 0.00 0.00 0.00 94 1009.3
20260831131704 75 204 0.0 4.3 0.00 0.00 0.00 94 1009.3
20260831131513 75 203 0.0 4.3 0.00 0.00 0.00 95 1009.2
20260831131506 75 206 0.0 4.3 0.00 0.00 0.00 94 1009.2
20260831131208 75 276 0.0 4.3 0.00 0.00 0.00 95 1009.2
20260831131041 75 233 0.0 4.3 0.00 0.00 0.00 95 1009.1
20260831130959 75 204 0.0 4.3 0.00 0.00 0.00 95 1009.1
20260831130940 75 240 0.0 4.3 0.00 0.00 0.00 95 1009.1
20260831130642 75 203 0.0 4.3 0.00 0.00 0.00 95 1009.0
20260831130441 75 195 0.0 4.3 0.00 0.00 0.00 95 1009.1
20260831130339 75 193 0.0 4.3 0.00 0.00 0.00 95 1009.0
20260831130207 75 220 0.0 4.3 0.00 0.00 0.00 95 1009.0
20260831130038 75 221 0.0 4.3 0.00 0.00 0.00 95 1009.1
20260831125838 74 219 0.0 4.3 0.00 0.00 0.00 95 1009.0
20260831125707 74 196 0.0 4.3 0.00 0.00 0.00 95 1009.1
20260831125633 74 195 0.0 4.3 0.00 0.00 0.00 95 1009.1
20260831125433 74 220 0.0 4.3 0.00 0.00 0.00 95 1008.9
20260831125332 74 216 0.0 4.3 0.00 0.00 0.00 95 1009.0
20260831125207 74 221 0.0 1.7 0.00 0.00 0.00 95 1008.9
20260831125030 74 220 0.0 1.7 0.00 0.00 0.00 95 1008.9
20260831124926 74 219 0.0 0.0 0.00 0.00 0.00 95 1009.0
20260831124707 74 219 0.0 0.0 0.00 0.00 0.00 96 1008.8
20260831124631 74 220 0.0 0.0 0.00 0.00 0.00 96 1008.8
20260831124431 74 202 0.0 0.0 0.00 0.00 0.00 96 1008.8
20260831124209 74 202 0.0 0.0 0.00 0.00 0.00 96 1008.8
20260831124030 74 200 0.0 0.0 0.00 0.00 0.00 96 1008.9
20260831123931 74 202 0.0 0.0 0.00 0.00 0.00 96 1008.8
20260831123711 74 202 0.0 0.0 0.00 0.00 0.00 96 1008.8
20260831123631 74 202 0.0 0.0 0.00 0.00 0.00 96 1008.8
20260831123531 74 202 0.0 0.0 0.00 0.00 0.00 96 1008.9
20260831123212 74 202 0.0 0.0 0.00 0.00 0.00 96 1008.9
20260831123029 74 202 0.0 0.0 0.00 0.00 0.00 96 1008.9
20260831122828 74 235 0.0 0.0 0.00 0.00 0.00 96 1008.9
20260831122707 74 193 0.0 0.0 0.00 0.00 0.00 96 1008.9
20260831122627 74 193 0.0 0.0 0.00 0.00 0.00 96 1008.9
20260831122427 73 193 0.0 0.0 0.00 0.00 0.00 96 1008.9
20260831122225 73 180 0.0 0.0 0.00 0.00 0.00 96 1008.8
20260831122205 73 179 0.0 0.0 0.00 0.00 0.00 96 1008.9
20260831122124 73 199 0.0 0.0 0.00 0.00 0.00 96 1008.8
20260831122034 73 200 0.0 0.0 0.00 0.00 0.00 96 1008.8
20260831121947 73 200 0.0 0.0 0.00 0.00 0.00 96 1008.8
20260831121621 73 200 0.0 0.0 0.00 0.00 0.00 96 1008.8
20260831121421 73 200 0.0 0.0 0.00 0.00 0.00 96 1008.7
20260831121219 73 195 0.0 0.0 0.00 0.00 0.00 96 1008.8
20260831121202 73 199 0.0 0.0 0.00 0.00 0.00 96 1008.7
20260831121019 73 197 0.0 0.0 0.00 0.00 0.00 96 1008.8
20260831120948 73 199 0.0 0.0 0.00 0.00 0.00 96 1008.7
20260831120931 73 197 0.0 0.0 0.00 0.00 0.00 96 1008.7
20260831120617 73 199 0.0 0.0 0.00 0.00 0.00 96 1008.7
20260831120611 73 199 0.0 0.0 0.00 0.00 0.00 96 1008.6
20260831120215 73 197 0.0 0.0 0.00 0.00 0.00 96 1008.7
20260831120200 73 199 0.0 0.0 0.00 0.00 0.00 96 1008.7
20260831120012 73 199 0.0 0.0 0.00 0.00 0.00 96 1008.7
20260831115954 73 197 0.0 0.0 0.00 0.00 0.00 96 1008.6
20260831115930 73 199 0.0 0.0 0.00 0.00 0.00 96 1008.7
20260831115610 73 197 0.0 0.0 0.00 0.00 0.00 96 1008.6
20260831115410 73 199 0.0 0.0 0.00 0.00 0.00 96 1008.6
20260831115218 73 197 0.0 0.0 0.00 0.00 0.00 95 1008.5
20260831115213 73 199 0.0 0.0 0.00 0.00 0.00 96 1008.5
20260831115202 73 197 0.0 0.0 0.00 0.00 0.00 95 1008.5
20260831114937 73 200 0.0 0.0 0.00 0.00 0.00 95 1008.3
20260831114919 73 199 0.0 0.0 0.00 0.00 0.00 95 1008.3
20260831114611 73 197 0.0 0.0 0.00 0.00 0.00 95 1008.3
20260831114411 73 200 0.0 0.0 0.00 0.00 0.00 95 1008.3
20260831114211 73 199 0.0 0.0 0.00 0.00 0.00 95 1008.2
20260831114146 73 199 0.0 0.0 0.00 0.00 0.00 95 1008.2
20260831114008 73 199 0.0 0.0 0.00 0.00 0.00 95 1008.2
20260831113904 73 199 0.0 0.0 0.00 0.00 0.00 95 1008.2
20260831113644 73 199 0.0 0.0 0.00 0.00 0.00 95 1008.1
20260831113608 73 199 0.0 0.0 0.00 0.00 0.00 95 1008.2
20260831113505 73 200 0.0 0.0 0.00 0.00 0.00 95 1008.1
20260831113207 73 199 0.0 0.0 0.00 0.00 0.00 95 1008.2
20260831113145 73 199 0.0 0.0 0.00 0.00 0.00 95 1008.2
20260831113008 73 199 0.0 0.0 0.00 0.00 0.00 95 1008.2
20260831112809 73 193 0.0 0.0 0.00 0.00 0.00 95 1008.2
20260831112646 73 193 0.0 0.0 0.00 0.00 0.00 95 1008.2
20260831112606 73 192 0.0 0.0 0.00 0.00 0.00 95 1008.1
20260831112512 73 192 0.0 0.0 0.00 0.00 0.00 95 1008.1
20260831112155 73 193 0.0 0.0 0.00 0.00 0.00 95 1008.0
20260831112141 73 192 0.0 0.0 0.00 0.00 0.00 95 1008.0
20260831112049 73 193 0.0 0.0 0.00 0.00 0.00 95 1008.1
20260831111753 73 192 0.0 0.0 0.00 0.00 0.00 95 1008.0
20260831111642 73 193 0.0 0.0 0.00 0.00 0.00 95 1008.1
20260831111551 73 192 0.0 0.0 0.00 0.00 0.00 95 1008.1
20260831111352 73 192 0.0 0.0 0.00 0.00 0.00 95 1008.1
20260831111152 73 192 0.0 0.0 0.00 0.00 0.00 95 1007.9
20260831111141 73 193 0.0 0.0 0.00 0.00 0.00 95 1007.9
20260831111048 73 192 0.0 0.0 0.00 0.00 0.00 95 1008.0
20260831110747 74 192 0.0 0.0 0.00 0.00 0.00 95 1007.9
20260831110642 74 193 0.0 0.0 0.00 0.00 0.00 95 1007.9
20260831110544 74 192 0.0 0.0 0.00 0.00 0.00 95 1007.8
20260831110438 74 190 0.0 0.0 0.00 0.00 0.00 95 1007.5
20260831110423 74 192 0.0 0.0 0.00 0.00 0.00 95 1007.6
20260831110354 74 192 0.0 0.0 0.00 0.00 0.00 95 1007.5
20260831105742 74 192 0.0 0.0 0.00 0.00 0.00 95 1007.6
20260831105640 74 190 0.0 0.0 0.00 0.00 0.00 95 1007.6
20260831105542 74 192 0.0 0.0 0.00 0.00 0.00 95 1007.5
20260831105341 74 192 0.0 0.0 0.00 0.00 0.00 95 1007.6
20260831105139 74 189 0.0 0.0 0.00 0.00 0.00 95 1007.4
20260831104941 74 188 0.0 0.0 0.00 0.00 0.00 95 1007.4
20260831104743 74 189 0.0 0.0 0.00 0.00 0.00 95 1007.6
20260831104737 74 188 0.0 0.0 0.00 0.00 0.00 95 1007.8
20260831104634 74 190 0.0 0.0 0.00 0.00 0.00 95 1007.6
20260831104341 74 188 0.0 0.0 0.00 0.00 0.00 95 1007.6
20260831104133 74 188 0.0 0.0 0.00 0.00 0.00 95 1007.5
20260831103937 74 185 0.0 0.0 0.00 0.00 0.00 95 1007.8
20260831103735 74 182 0.0 0.0 0.00 0.00 0.00 95 1007.6
20260831103633 74 182 0.0 0.0 0.00 0.00 0.00 95 1007.6
20260831103536 74 180 0.0 0.0 0.00 0.00 0.00 95 1007.6
20260831103342 74 183 0.0 0.0 0.00 0.00 0.00 95 1007.8
20260831103337 74 183 0.0 0.0 0.00 0.00 0.00 95 1007.8
20260831103134 74 183 0.0 0.0 0.00 0.00 0.00 95 1007.8
20260831102936 74 180 0.0 0.0 0.00 0.00 0.00 95 1007.8
20260831102734 74 180 0.0 0.0 0.00 0.00 0.00 94 1007.6
20260831102634 74 183 0.0 0.0 0.00 0.00 0.00 95 1007.5
20260831102532 74 182 0.0 0.0 0.00 0.00 0.00 95 1007.5
20260831102335 74 182 0.0 0.0 0.00 0.00 0.00 94 1007.5
20260831102131 74 204 0.0 0.0 0.00 0.00 0.00 94 1007.6
20260831101932 74 204 0.0 0.0 0.00 0.00 0.00 94 1007.8
20260831101729 74 204 0.0 0.0 0.00 0.00 0.00 94 1007.6
20260831101630 74 204 0.0 0.0 0.00 0.00 0.00 94 1007.6
20260831101530 74 202 0.0 0.0 0.00 0.00 0.00 94 1007.5
20260831101425 74 210 0.0 0.0 0.00 0.00 0.00 94 1007.5
20260831101408 74 186 0.0 0.0 0.00 0.00 0.00 94 1007.6
20260831101027 74 199 0.0 0.0 0.00 0.00 0.00 94 1007.5
20260831100728 74 200 0.0 0.0 0.00 0.00 0.00 94 1007.5
20260831100623 74 200 0.0 0.0 0.00 0.00 0.00 94 1007.6
20260831100526 74 200 0.0 0.0 0.00 0.00 0.00 95 1007.6
20260831100424 74 213 0.0 0.0 0.00 0.00 0.00 94 1007.6
20260831100406 74 206 0.0 0.0 0.00 0.00 0.00 95 1007.6
20260831100339 74 213 0.0 0.0 0.00 0.00 0.00 94 1007.6
20260831095922 74 203 0.0 0.0 0.00 0.00 0.00 94 1007.6
20260831095821 74 203 0.0 0.0 0.00 0.00 0.00 94 1007.6
20260831095625 74 203 0.0 0.0 0.00 0.00 0.00 94 1007.5
20260831095620 74 204 0.0 0.0 0.00 0.00 0.00 94 1007.5
20260831095419 74 183 0.0 0.0 0.00 0.00 0.00 95 1007.4
20260831095403 74 200 0.0 0.0 0.00 0.00 0.00 95 1007.5
20260831095122 74 183 0.0 0.0 0.00 0.00 0.00 95 1007.4
20260831094922 74 183 0.0 0.0 0.00 0.00 0.00 94 1007.4
20260831094716 74 172 0.0 0.0 0.00 0.00 0.00 95 1007.5
20260831094621 74 185 0.0 0.0 0.00 0.00 0.00 95 1007.5
20260831094514 74 196 0.0 0.0 0.00 0.00 0.00 95 1007.5
20260831094415 74 169 0.0 0.0 0.00 0.00 0.00 95 1007.6
20260831094114 74 190 0.0 0.0 0.00 0.00 0.00 95 1007.5
20260831094013 74 162 0.0 0.0 0.00 0.00 0.00 95 1007.5
20260831093714 74 188 0.0 0.0 0.00 0.00 0.00 95 1007.6
20260831093623 74 193 0.0 0.0 0.00 0.00 0.00 95 1007.6
20260831093512 74 192 0.0 0.0 0.00 0.00 0.00 95 1007.6
20260831093410 74 178 0.0 0.0 0.00 0.00 0.00 94 1007.8
20260831093352 74 171 0.0 0.0 0.00 0.00 0.00 95 1007.8
20260831093114 74 179 0.0 0.0 0.00 0.00 0.00 94 1007.8
20260831093011 74 199 0.0 0.0 0.00 0.00 0.00 94 1007.6
20260831092712 74 183 0.0 0.0 0.00 0.00 0.00 94 1007.6
20260831092615 74 182 0.0 0.0 0.00 0.00 0.00 94 1007.6
20260831092610 74 179 0.0 0.0 0.00 0.00 0.00 94 1007.6
20260831092414 74 193 0.0 0.0 0.00 0.00 0.00 94 1007.6
20260831092354 74 192 0.0 0.0 0.00 0.00 0.00 94 1007.6
20260831092324 74 193 0.0 0.0 0.00 0.00 0.00 94 1007.6
20260831091908 74 195 0.0 0.0 0.00 0.00 0.00 94 1007.6
20260831091709 74 193 0.0 0.0 0.00 0.00 0.00 94 1007.5
20260831091618 74 193 0.0 0.0 0.00 0.00 0.00 94 1007.5
20260831091608 74 195 0.0 0.0 0.00 0.00 0.00 94 1007.5
20260831091407 74 195 0.0 0.0 0.00 0.00 0.00 94 1007.4
20260831091353 74 195 0.0 0.0 0.00 0.00 0.00 94 1007.5
20260831090911 74 195 0.0 0.0 0.00 0.00 0.00 94 1007.4
20260831090712 74 192 0.0 0.0 0.00 0.00 0.00 94 1007.4
20260831090612 74 195 0.0 0.0 0.00 0.00 0.00 94 1007.4
20260831090511 74 196 0.0 0.0 0.00 0.00 0.00 94 1007.4
20260831090313 74 195 0.0 0.0 0.00 0.00 0.00 94 1007.4
20260831090218 74 189 0.0 0.0 0.00 0.00 0.00 94 1007.4
20260831090116 74 189 0.0 0.0 0.00 0.00 0.00 94 1007.4
20260831085911 74 190 0.0 0.0 0.00 0.00 0.00 94 1007.4
20260831085711 74 207 0.0 0.0 0.00 0.00 0.00 94 1007.4
20260831085612 74 207 0.0 0.0 0.00 0.00 0.00 94 1007.4
20260831085511 74 209 0.0 0.0 0.00 0.00 0.00 94 1007.4
20260831085452 74 200 0.0 0.0 0.00 0.00 0.00 94 1007.5
20260831085406 74 204 0.0 0.0 0.00 0.00 0.00 94 1007.4
20260831085324 74 204 0.0 0.0 0.00 0.00 0.00 94 1007.4
20260831085010 74 199 0.0 0.0 0.00 0.00 0.00 94 1007.5
20260831084711 74 158 0.0 0.0 0.00 0.00 0.00 94 1007.4
20260831084612 74 217 0.0 0.0 0.00 0.00 0.00 94 1007.4
20260831084511 74 219 0.0 0.0 0.00 0.00 0.00 94 1007.4
20260831084412 74 189 0.0 0.0 0.00 0.00 0.00 94 1007.4
20260831084353 74 217 0.0 0.0 0.00 0.00 0.00 94 1007.4
20260831084324 74 189 0.0 0.0 0.00 0.00 0.00 94 1007.4
20260831084010 74 183 0.0 0.0 0.00 0.00 0.00 94 1007.4
20260831083711 74 180 0.0 0.0 0.00 0.00 0.00 94 1007.4
20260831083622 74 165 0.0 0.0 0.00 0.00 0.00 94 1007.4
20260831083613 74 166 0.0 0.0 0.00 0.00 0.00 94 1007.4
20260831083413 74 196 0.0 0.0 0.00 0.00 0.00 94 1007.3
20260831083355 74 164 0.0 0.0 0.00 0.00 0.00 94 1007.3
20260831083326 74 196 0.0 0.0 0.00 0.00 0.00 94 1007.3
20260831082912 74 192 0.0 0.0 0.00 0.00 0.00 95 1007.3
20260831082711 74 196 0.0 0.0 0.00 0.00 0.00 94 1007.3
20260831082624 74 190 0.0 0.0 0.00 0.00 0.00 95 1007.3
20260831082612 74 196 0.0 0.0 0.00 0.00 0.00 95 1007.3
20260831082311 74 195 0.0 0.0 0.00 0.00 0.00 95 1007.2
20260831082218 74 195 0.0 0.0 0.00 0.00 0.00 95 1007.2
20260831082112 74 195 0.0 0.0 0.00 0.00 0.00 95 1007.2
20260831082010 74 195 0.0 0.0 0.00 0.00 0.00 94 1007.2
20260831081901 74 188 0.0 0.0 0.00 0.00 0.00 94 1007.2
20260831081838 74 188 0.0 0.0 0.00 0.00 0.00 94 1007.3
20260831081511 74 185 0.0 0.0 0.00 0.00 0.00 94 1007.2
20260831081311 74 182 0.0 0.0 0.00 0.00 0.00 94 1007.2
20260831081220 74 179 0.0 0.0 0.00 0.00 0.00 94 1007.3
20260831081113 74 179 0.0 0.0 0.00 0.00 0.00 94 1007.3
20260831080941 74 171 0.0 0.0 0.00 0.00 0.00 94 1007.4
20260831080912 74 171 0.0 0.0 0.00 0.00 0.00 94 1007.3
20260831080903 74 171 0.0 0.0 0.00 0.00 0.00 94 1007.4
20260831080511 74 171 0.0 0.0 0.00 0.00 0.00 94 1007.3
20260831080311 74 171 0.0 0.0 0.00 0.00 0.00 94 1007.4
20260831080121 74 193 0.0 0.0 0.00 0.00 0.00 94 1007.3
20260831075937 74 193 0.0 0.0 0.00 0.00 0.00 94 1007.2
20260831075910 74 193 0.0 0.0 0.00 0.00 0.00 94 1007.3
20260831075856 74 193 0.0 0.0 0.00 0.00 0.00 94 1007.3
20260831075511 74 193 0.0 0.0 0.00 0.00 0.00 94 1007.2
20260831075412 74 202 0.0 0.0 0.00 0.00 0.00 94 1007.2
20260831075112 74 204 0.0 0.0 0.00 0.00 0.00 94 1007.2
20260831074913 74 203 0.0 0.0 0.00 0.00 0.00 94 1007.3
20260831074905 74 204 0.0 0.0 0.00 0.00 0.00 94 1007.3
20260831074841 74 203 0.0 0.0 0.00 0.00 0.00 94 1007.3
20260831074513 74 204 0.0 0.0 0.00 0.00 0.00 94 1007.3
20260831074413 74 123 0.0 0.0 0.00 0.00 0.00 94 1007.3
20260831074112 74 185 0.0 0.0 0.00 0.00 0.00 94 1007.3
20260831074006 73 195 0.0 0.0 0.00 0.00 0.00 94 1007.3
20260831073711 73 158 0.0 0.0 0.00 0.00 0.00 94 1007.3
20260831073611 73 157 0.0 0.0 0.00 0.00 0.00 94 1007.3
20260831073511 73 158 0.0 0.0 0.00 0.00 0.00 94 1007.3
20260831073413 73 155 0.0 0.0 0.00 0.00 0.00 94 1007.2
20260831073358 73 157 0.0 0.0 0.00 0.00 0.00 94 1007.2
20260831073326 73 155 0.0 0.0 0.00 0.00 0.00 94 1007.2
20260831072911 73 157 0.0 0.0 0.00 0.00 0.00 94 1007.2
20260831072812 73 158 0.0 0.0 0.00 0.00 0.00 94 1007.3
20260831072622 73 154 0.0 0.0 0.00 0.00 0.00 94 1007.2
20260831072612 73 152 0.0 0.0 0.00 0.00 0.00 94 1007.3
20260831072410 73 182 0.0 0.0 0.00 0.00 0.00 94 1007.2
20260831072356 73 166 0.0 0.0 0.00 0.00 0.00 94 1007.2
20260831072324 73 182 0.0 0.0 0.00 0.00 0.00 94 1007.2
20260831071911 73 182 0.0 0.0 0.00 0.00 0.00 94 1007.2
20260831071711 73 180 0.0 0.0 0.00 0.00 0.00 94 1007.3
20260831071612 73 180 0.0 0.0 0.00 0.00 0.00 94 1007.3
20260831071531 73 173 0.0 0.0 0.00 0.00 0.00 93 1007.3
20260831071511 73 176 0.0 0.0 0.00 0.00 0.00 93 1007.2
20260831071405 73 173 0.0 0.0 0.00 0.00 0.00 93 1007.3
20260831071357 73 173 0.0 0.0 0.00 0.00 0.00 93 1007.2
20260831070911 74 173 0.0 0.0 0.00 0.00 0.00 93 1007.4
20260831070712 74 165 0.0 0.0 0.00 0.00 0.00 94 1007.4
20260831070611 74 161 0.0 0.0 0.00 0.00 0.00 93 1007.4
20260831070511 74 169 0.0 0.0 0.00 0.00 0.00 93 1007.4
20260831070311 74 157 0.0 0.0 0.00 0.00 0.00 93 1007.5
20260831070125 74 158 0.0 0.0 0.00 0.00 0.00 94 1007.5
20260831070010 74 168 0.0 0.0 0.00 0.00 0.00 93 1007.6
20260831065711 74 168 0.0 0.0 0.00 0.00 0.00 93 1007.6
20260831065612 74 134 0.0 0.0 0.00 0.00 0.00 93 1007.6
20260831065511 74 138 0.0 0.0 0.00 0.00 0.00 93 1007.6
20260831065312 74 165 0.0 0.0 0.00 0.00 0.00 93 1007.5
20260831065112 74 157 0.0 0.0 0.00 0.00 0.00 93 1007.6
20260831064911 74 169 0.0 0.0 0.00 0.00 0.00 93 1007.6
20260831064812 74 165 0.0 0.0 0.00 0.00 0.00 93 1007.6
20260831064611 74 172 0.0 0.0 0.00 0.00 0.00 93 1007.8
20260831064511 74 172 0.0 0.0 0.00 0.00 0.00 93 1007.8
20260831064312 74 169 0.0 0.0 0.00 0.00 0.00 93 1008.0
20260831064217 74 168 0.0 0.0 0.00 0.00 0.00 93 1007.9
20260831064112 74 168 0.0 0.0 0.00 0.00 0.00 93 1007.9
20260831063911 74 168 0.0 0.0 0.00 0.00 0.00 93 1007.9
20260831063711 74 190 0.0 0.0 0.00 0.00 0.00 93 1007.9
20260831063611 74 142 0.0 0.0 0.00 0.00 0.00 93 1007.9
20260831063511 74 162 0.0 0.0 0.00 0.00 0.00 93 1007.9
20260831063415 74 193 0.0 0.0 0.00 0.00 0.00 93 1008.0
20260831063113 74 172 0.0 0.0 0.00 0.00 0.00 93 1008.0
20260831062911 74 172 0.0 0.0 0.00 0.00 0.00 93 1008.1
20260831062812 74 172 0.0 0.0 0.00 0.00 0.00 93 1008.0
20260831062611 74 176 0.0 0.0 0.00 0.00 0.00 93 1007.9
20260831062511 74 173 0.0 0.0 0.00 0.00 0.00 93 1007.9
20260831062311 74 168 0.0 0.0 0.00 0.00 0.00 93 1008.0
20260831062112 74 185 0.0 0.0 0.00 0.00 0.00 93 1008.1
20260831062013 74 169 0.0 0.0 0.00 0.00 0.00 92 1008.1
20260831061711 74 169 0.0 0.0 0.00 0.00 0.00 92 1008.1
20260831061611 74 171 0.0 0.0 0.00 0.00 0.00 92 1008.1
20260831061511 74 171 0.0 0.0 0.00 0.00 0.00 92 1008.1
20260831061311 74 175 0.0 0.0 0.00 0.00 0.00 92 1008.1
20260831061112 74 173 0.0 0.0 0.00 0.00 0.00 92 1008.2
20260831060913 74 179 0.0 0.0 0.00 0.00 0.00 92 1008.2
20260831060711 74 165 0.0 0.0 0.00 0.00 0.00 92 1008.2
20260831060622 74 165 0.0 0.0 0.00 0.00 0.00 92 1008.2
20260831060611 74 165 0.0 0.0 0.00 0.00 0.00 92 1008.2
20260831060513 74 175 0.0 0.0 0.00 0.00 0.00 92 1008.3
20260831060424 74 161 0.0 0.0 0.00 0.00 0.00 92 1008.3
20260831060337 74 161 0.0 0.0 0.00 0.00 0.00 92 1008.3
20260831055911 74 161 0.0 0.0 0.00 0.00 0.00 92 1008.3
20260831055714 74 159 0.0 0.0 0.00 0.00 0.00 92 1008.3
20260831055610 74 159 0.0 0.0 0.00 0.00 0.00 92 1008.3
20260831055507 74 161 0.0 0.0 0.00 0.00 0.00 92 1008.3
20260831055414 74 182 0.0 0.0 0.00 0.00 0.00 92 1008.3
20260831055405 74 161 0.0 0.0 0.00 0.00 0.00 92 1008.3
20260831055352 74 161 0.0 0.0 0.00 0.00 0.00 92 1008.3
20260831055106 74 161 0.0 0.0 0.00 0.00 0.00 92 1008.3
20260831054708 74 162 0.0 0.0 0.00 0.00 0.00 92 1008.4
20260831054612 74 162 0.0 0.0 0.00 0.00 0.00 92 1008.4
20260831054506 74 161 0.0 0.0 0.00 0.00 0.00 92 1008.4
20260831054411 74 30 0.0 0.0 0.00 0.00 0.00 92 1008.4
20260831054352 74 154 0.0 0.0 0.00 0.00 0.00 92 1008.3
20260831054104 74 30 0.0 0.0 0.00 0.00 0.00 92 1008.4
20260831053905 74 323 0.0 0.0 0.00 0.00 0.00 91 1008.5
20260831053705 74 168 0.0 0.0 0.00 0.00 0.00 91 1008.3
20260831053612 74 166 0.0 0.0 0.00 0.00 0.00 91 1008.3
20260831053602 74 186 0.0 0.0 0.00 0.00 0.00 91 1008.3
20260831053302 74 190 0.0 0.0 0.00 0.00 0.00 91 1008.4
20260831053125 74 190 0.0 0.0 0.00 0.00 0.00 91 1008.4
20260831053104 74 192 0.0 0.0 0.00 0.00 0.00 91 1008.5
20260831052857 74 192 0.0 0.0 0.00 0.00 0.00 91 1008.5
20260831052659 74 192 0.0 0.0 0.00 0.00 0.00 91 1008.6
20260831052612 74 192 0.0 0.0 0.00 0.00 0.00 91 1008.5
20260831052457 74 185 0.0 0.0 0.00 0.00 0.00 91 1008.7
20260831052353 74 209 0.0 0.0 0.00 0.00 0.00 91 1008.6
20260831052149 74 158 0.0 0.0 0.00 0.00 0.00 91 1008.6
20260831052111 74 158 0.0 0.0 0.00 0.00 0.00 91 1008.6
20260831051855 74 157 0.0 0.0 0.00 0.00 0.00 91 1008.6
20260831051654 74 155 0.0 0.0 0.00 0.00 0.00 91 1008.6
20260831051611 74 138 0.0 0.0 0.00 0.00 0.00 91 1008.6
20260831051454 74 175 0.0 0.0 0.00 0.00 0.00 91 1008.6
20260831051252 74 173 0.0 0.0 0.00 0.00 0.00 91 1008.7
20260831051110 74 159 0.0 0.0 0.00 0.00 0.00 91 1008.6
20260831051051 74 161 0.0 0.0 0.00 0.00 0.00 91 1008.6
20260831050948 74 217 0.0 0.0 0.00 0.00 0.00 91 1008.7
20260831050745 74 197 0.0 0.0 0.00 0.00 0.00 91 1008.8
20260831050612 74 197 0.0 0.0 0.00 0.00 0.00 91 1008.8
20260831050446 74 197 0.0 0.0 0.00 0.00 0.00 91 1008.8
20260831050245 74 197 0.0 0.0 0.00 0.00 0.00 91 1008.8
20260831050126 74 185 0.0 0.0 0.00 0.00 0.00 90 1008.9
20260831050045 74 186 0.0 0.0 0.00 0.00 0.00 90 1008.8
20260831045840 74 185 0.0 0.0 0.00 0.00 0.00 90 1008.8
20260831045611 74 186 0.0 0.0 0.00 0.00 0.00 90 1008.8
20260831045538 74 183 0.0 0.0 0.00 0.00 0.00 90 1008.8
20260831045238 75 183 0.0 0.0 0.00 0.00 0.00 90 1008.8
20260831045111 75 23 0.0 0.0 0.00 0.00 0.00 90 1008.8
20260831045037 75 23 0.0 0.0 0.00 0.00 0.00 90 1008.9
20260831044843 75 176 0.0 0.0 0.00 0.00 0.00 90 1008.8
20260831044838 75 179 0.0 0.0 0.00 0.00 0.00 90 1008.9
20260831044611 75 176 0.0 0.0 0.00 0.00 0.00 90 1008.8
20260831044437 75 188 0.0 0.0 0.00 0.00 0.00 90 1008.8
20260831044235 75 219 0.0 0.0 0.00 0.00 0.00 90 1008.8
20260831044109 75 196 0.0 0.0 0.00 0.00 0.00 90 1008.8
20260831044033 75 199 0.0 0.0 0.00 0.00 0.00 90 1008.9
20260831043910 75 148 0.0 0.0 0.00 0.00 0.00 90 1008.8
20260831043858 75 162 0.0 0.0 0.00 0.00 0.00 90 1008.9
20260831043834 75 162 0.0 0.0 0.00 0.00 0.00 90 1008.8
20260831043431 75 175 0.0 0.0 0.00 0.00 0.00 90 1008.9
20260831043425 75 172 0.0 0.0 0.00 0.00 0.00 90 1009.0
20260831043111 75 159 0.0 0.0 0.00 0.00 0.00 90 1008.9
20260831043033 75 159 0.0 0.0 0.00 0.00 0.00 90 1008.9
20260831042908 75 166 0.0 0.0 0.00 0.00 0.00 90 1008.9
20260831042900 75 159 0.0 0.0 0.00 0.00 0.00 90 1008.9
20260831042833 75 157 0.0 0.0 0.00 0.00 0.00 90 1008.9
20260831042432 75 147 0.0 0.0 0.00 0.00 0.00 90 1008.8
20260831042232 75 154 0.0 0.0 0.00 0.00 0.00 90 1008.8
20260831042108 75 179 0.0 0.0 0.00 0.00 0.00 90 1008.8
20260831042049 75 186 0.0 0.0 0.00 0.00 0.00 90 1008.7
20260831042031 75 171 0.0 0.0 0.00 0.00 0.00 90 1008.8
20260831041901 75 164 0.0 0.0 0.00 0.00 0.00 90 1008.8
20260831041830 75 165 0.0 0.0 0.00 0.00 0.00 90 1008.8
20260831041432 75 159 0.0 0.0 0.00 0.00 0.00 90 1008.8
20260831041232 75 173 0.0 0.0 0.00 0.00 0.00 90 1008.9
20260831041108 75 180 0.0 0.0 0.00 0.00 0.00 90 1008.9
20260831041032 75 180 0.0 0.0 0.00 0.00 0.00 90 1008.9
20260831040832 75 180 0.0 0.0 0.00 0.00 0.00 90 1008.9
20260831040633 75 180 0.0 0.0 0.00 0.00 0.00 90 1008.9
20260831040606 75 168 0.0 0.0 0.00 0.00 0.00 90 1008.9
20260831040432 75 169 0.0 0.0 0.00 0.00 0.00 90 1008.8
20260831040308 75 173 0.0 0.0 0.00 0.00 0.00 90 1008.8
20260831040132 75 161 0.0 0.0 0.00 0.00 0.00 90 1008.8
20260831040114 75 152 0.0 0.0 0.00 0.00 0.00 90 1008.9
20260831035808 75 172 0.0 0.0 0.00 0.00 0.00 90 1008.8
20260831035606 75 190 0.0 0.0 0.00 0.00 0.00 90 1008.8
20260831035407 75 159 0.0 0.0 0.00 0.00 0.00 90 1008.7
20260831035211 75 200 0.0 0.0 0.00 0.00 0.00 89 1008.7
20260831035105 75 186 0.0 0.0 0.00 0.00 0.00 89 1008.7
20260831035008 75 185 0.0 0.0 0.00 0.00 0.00 89 1008.7
20260831034905 75 162 0.0 0.0 0.00 0.00 0.00 89 1008.8
20260831034716 75 164 0.0 0.0 0.00 0.00 0.00 89 1008.8
20260831034604 75 164 0.0 0.0 0.00 0.00 0.00 89 1008.9
20260831034408 75 158 0.0 0.0 0.00 0.00 0.00 89 1008.9
20260831034207 75 165 0.0 0.0 0.00 0.00 0.00 90 1008.8
20260831034105 75 166 0.0 0.0 0.00 0.00 0.00 90 1008.8
20260831034007 75 151 0.0 0.0 0.00 0.00 0.00 89 1008.8
20260831033808 75 183 0.0 0.0 0.00 0.00 0.00 89 1008.8
20260831033617 75 173 0.0 0.0 0.00 0.00 0.00 89 1008.7
20260831033604 75 171 0.0 0.0 0.00 0.00 0.00 89 1008.7
20260831033506 75 1 0.0 0.0 0.00 0.00 0.00 89 1008.8
20260831033206 75 21 0.0 0.0 0.00 0.00 0.00 89 1008.9
20260831033109 75 171 0.0 0.0 0.00 0.00 0.00 89 1008.9
20260831033005 75 203 0.0 0.0 0.00 0.00 0.00 89 1008.9
20260831032807 75 172 0.0 0.0 0.00 0.00 0.00 89 1008.9
20260831032610 75 175 0.0 0.0 0.00 0.00 0.00 89 1008.9
20260831032505 76 172 0.0 0.0 0.00 0.00 0.00 89 1009.0
20260831032207 76 172 0.0 0.0 0.00 0.00 0.00 89 1009.0
20260831032110 76 172 0.0 0.0 0.00 0.00 0.00 89 1008.9
20260831032032 76 179 0.0 0.0 0.00 0.00 0.00 89 1008.9
20260831031734 76 179 0.0 0.0 0.00 0.00 0.00 89 1008.9
20260831031538 76 176 0.0 0.0 0.00 0.00 0.00 89 1008.9
20260831031335 76 165 0.0 0.0 0.00 0.00 0.00 89 1008.9
20260831031133 76 166 0.0 0.0 0.00 0.00 0.00 89 1008.9
20260831031045 76 172 0.0 0.0 0.00 0.00 0.00 89 1008.8
20260831031036 76 165 0.0 0.0 0.00 0.00 0.00 89 1008.9
20260831030732 76 188 0.0 0.0 0.00 0.00 0.00 89 1008.8
20260831030640 76 188 0.0 0.0 0.00 0.00 0.00 89 1008.8
20260831030536 76 188 0.0 0.0 0.00 0.00 0.00 89 1008.8
20260831030321 76 152 0.0 0.0 0.00 0.00 0.00 89 1008.7
20260831030120 76 157 0.0 0.0 0.00 0.00 0.00 88 1008.7
20260831030014 76 66 0.0 0.0 0.00 0.00 0.00 88 1008.7
20260831025920 76 183 0.0 0.0 0.00 0.00 0.00 88 1008.6
20260831025721 76 148 0.0 0.0 0.00 0.00 0.00 88 1008.6
20260831025619 76 171 0.0 0.0 0.00 0.00 0.00 88 1008.7
20260831025516 76 171 0.0 0.0 0.00 0.00 0.00 88 1008.7
20260831025317 76 178 0.0 0.0 0.00 0.00 0.00 88 1008.6
20260831025311 76 183 0.0 0.0 0.00 0.00 0.00 88 1008.7
20260831025012 76 204 0.0 0.0 0.00 0.00 0.00 88 1008.6
20260831024913 76 197 0.0 0.0 0.00 0.00 0.00 88 1008.7
20260831024712 76 173 0.0 0.0 0.00 0.00 0.00 87 1008.7
20260831024513 76 173 0.0 0.0 0.00 0.00 0.00 87 1008.7
20260831024344 76 165 0.0 0.0 0.00 0.00 0.00 87 1008.8
20260831024313 76 305 0.0 0.0 0.00 0.00 0.00 87 1008.8
20260831024307 76 159 0.0 0.0 0.00 0.00 0.00 87 1008.8
20260831023911 76 168 0.0 0.0 0.00 0.00 0.00 87 1008.7
20260831023816 76 155 0.0 0.0 0.00 0.00 0.00 87 1008.7
20260831023518 76 226 0.0 0.0 0.00 0.00 0.00 86 1008.8
20260831023234 0 0.0 0.0 0.00 0.00 0.00
20260831023202 0 0.0 0.0 0.00 0.00 0.00
20260831023034 0 0.0 0.0 0.00 0.00 0.00
20260831022834 0 0.0 0.0 0.00 0.00 0.00
20260831022711 0 0.0 0.0 0.00 0.00 0.00
20260831022702 0 0.0 0.0 0.00 0.00 0.00
20260831022408 0 0.0 0.0 0.00 0.00 0.00
20260831022310 0 0.0 0.0 0.00 0.00 0.00
20260831022207 0 0.0 0.0 0.00 0.00 0.00
20260831022006 0 0.0 0.0 0.00 0.00 0.00 1008.8
20260831021735 0 0.0 0.0 0.00 0.00 0.00 1008.8
20260831021634 77 190 0.0 0.0 0.00 0.00 0.00 84 1008.8
20260831021535 77 190 0.0 0.0 0.00 0.00 0.00 84 1008.8
20260831021335 77 190 0.0 0.0 0.00 0.00 0.00 84 1008.8
20260831021239 77 190 0.0 0.0 0.00 0.00 0.00 84 1008.8
20260831021132 77 190 0.0 0.0 0.00 0.00 0.00 84 1008.8
20260831020934 77 190 0.0 0.0 0.00 0.00 0.00 84 1008.9
20260831020732 77 190 0.0 0.0 0.00 0.00 0.00 84 1008.8
20260831020633 77 192 0.0 0.0 0.00 0.00 0.00 84 1008.9
20260831020612 77 190 0.0 0.0 0.00 0.00 0.00 84 1008.9
20260831020331 77 175 0.0 0.0 0.00 0.00 0.00 84 1009.0
20260831020231 77 176 0.0 0.0 0.00 0.00 0.00 84 1009.0
20260831020105 77 176 0.0 0.0 0.00 0.00 0.00 84 1008.9
20260831015930 78 188 0.0 0.0 0.00 0.00 0.00 84 1009.0
20260831015732 78 206 0.0 0.0 0.00 0.00 0.00 84 1009.0
20260831015603 78 157 0.0 0.0 0.00 0.00 0.00 84 1009.0
20260831015531 78 162 0.0 0.0 0.00 0.00 0.00 84 1009.0
20260831015331 78 169 0.0 0.0 0.00 0.00 0.00 84 1009.0
20260831015231 78 168 0.0 0.0 0.00 0.00 0.00 84 1008.9
20260831015103 78 162 0.0 0.0 0.00 0.00 0.00 84 1009.0
20260831014941 78 158 0.0 0.0 0.00 0.00 0.00 83 1009.0
20260831014932 78 182 0.0 0.0 0.00 0.00 0.00 83 1009.0
20260831014858 78 169 0.0 0.0 0.00 0.00 0.00 83 1008.9
20260831014532 78 52 0.0 0.0 0.00 0.00 0.00 83 1008.9
20260831014331 78 34 0.0 0.0 0.00 0.00 0.00 83 1009.0
20260831014136 78 204 0.0 0.0 0.00 0.00 0.00 83 1009.0
20260831014102 78 204 0.0 0.0 0.00 0.00 0.00 83 1009.0
20260831013930 78 202 0.0 0.0 0.00 0.00 0.00 83 1009.0
20260831013911 78 204 0.0 0.0 0.00 0.00 0.00 83 1009.0
20260831013851 78 204 0.0 0.0 0.00 0.00 0.00 82 1009.0
20260831013505 78 204 0.0 0.0 0.00 0.00 0.00 82 1008.9
20260831013358 78 204 0.0 0.0 0.00 0.00 0.00 82 1008.8
20260831013104 79 176 0.0 0.0 0.00 0.00 0.00 82 1008.9
20260831012903 79 176 0.0 0.0 0.00 0.00 0.00 82 1008.7
20260831012823 79 140 0.0 0.0 0.00 0.00 0.00 82 1008.6
20260831012806 79 65 0.0 0.0 0.00 0.00 0.00 82 1008.6
20260831012439 79 172 0.0 0.0 0.00 0.00 0.00 82 1008.6
20260831012240 79 173 0.0 0.0 0.00 0.00 0.00 82 1008.7
20260831012049 79 172 0.0 0.0 0.00 0.00 0.00 81 1008.6
20260831012033 79 166 0.0 0.0 0.00 0.00 0.00 81 1008.7
20260831011632 79 164 0.0 0.0 0.00 0.00 0.00 81 1008.6
20260831011532 79 161 0.0 0.0 0.00 0.00 0.00 81 1008.6
20260831011433 79 179 0.0 0.0 0.00 0.00 0.00 81 1008.6
20260831011231 79 178 0.0 0.0 0.00 0.00 0.00 81 1008.6
20260831011032 79 172 0.0 0.0 0.00 0.00 0.00 80 1008.7
20260831010830 80 158 0.0 0.0 0.00 0.00 0.00 80 1008.6
20260831010637 80 165 0.0 0.0 0.00 0.00 0.00 80 1008.7
20260831010630 80 158 0.0 0.0 0.00 0.00 0.00 80 1008.6
20260831010530 80 158 0.0 0.0 0.00 0.00 0.00 80 1008.6
20260831010231 80 176 0.0 0.0 0.00 0.00 0.00 80 1008.6
20260831010050 80 237 0.0 0.0 0.00 0.00 0.00 79 1008.6
20260831005831 80 227 0.0 0.0 0.00 0.00 0.00 79 1008.6
20260831005631 80 75 0.0 0.0 0.00 0.00 0.00 79 1008.4
20260831005532 80 183 0.0 0.0 0.00 0.00 0.00 78 1008.4
20260831005433 80 175 0.0 0.0 0.00 0.00 0.00 78 1008.2
20260831005229 80 173 0.0 0.0 0.00 0.00 0.00 78 1008.3
20260831005033 0 0.0 0.0 0.00 0.00 0.00 1008.2
20260831004610 0 0.0 0.0 0.00 0.00 0.00
20260831004406 0 0.0 0.0 0.00 0.00 0.00
20260831004331 0 0.0 0.0 0.00 0.00 0.00
20260831004309 0 0.0 0.0 0.00 0.00 0.00
20260831004109 0 0.0 0.0 0.00 0.00 0.00
20260831003830 0 0.0 0.0 0.00 0.00 0.00
20260831003735 0 0.0 0.0 0.00 0.00 0.00 1008.2
20260831003544 0 0.0 0.0 0.00 0.00 0.00 1008.2
20260831003525 0 0.0 0.0 0.00 0.00 0.00 1008.2
20260831003134 83 39 0.0 0.0 0.00 0.00 0.00 74 1008.2
20260831003044 83 39 0.0 0.0 0.00 0.00 0.00 74 1008.2
20260831003027 83 39 0.0 0.0 0.00 0.00 0.00 74 1008.2
20260831002756 83 39 0.0 0.0 0.00 0.00 0.00 74 1008.2
20260831002603 83 39 0.0 0.0 0.00 0.00 0.00 74 1008.2
20260831002301 83 39 0.0 0.0 0.00 0.00 0.00 74 1008.1
20260831002257 83 39 0.0 0.0 0.00 0.00 0.00 74 1008.1
20260831002054 83 37 0.0 0.0 0.00 0.00 0.00 74 1008.0
20260831002045 83 42 0.0 0.0 0.00 0.00 0.00 74 1008.0
20260831002014 83 34 0.0 0.0 0.00 0.00 0.00 74 1008.0
20260831001631 84 27 0.0 0.0 0.00 0.00 0.00 74 1008.0
20260831001437 84 47 0.0 0.0 0.00 0.00 0.00 73 1007.8
20260831001336 84 172 0.0 0.0 0.00 0.00 0.00 72 1007.8
20260831001253 84 172 0.0 0.0 0.00 0.00 0.00 72 1007.8
20260831001136 84 172 0.0 0.0 0.00 0.00 0.00 72 1007.8
20260831001037 84 172 0.0 0.0 0.00 0.00 0.00 72 1007.8
20260831001009 84 172 0.0 0.0 0.00 0.00 0.00 72 1007.9
20260831000629 84 172 0.0 0.0 0.00 0.00 0.00 71 1007.9
20260831000432 85 173 0.0 0.0 0.00 0.00 0.00 71 1007.8
20260831000244 85 165 0.0 0.0 0.00 0.00 0.00 71 1007.8
20260831000229 85 164 0.0 0.0 0.00 0.00 0.00 71 1007.8
20260831000049 85 113 0.0 0.0 0.00 0.00 0.00 70 1007.8
20260831000044 85 166 0.0 0.0 0.00 0.00 0.00 70 1007.6
20260831000039 85 165 0.0 0.0 0.00 0.00 0.00 70 1007.6
20260831000006 85 165 0.0 0.0 0.00 0.00 0.00 70 1007.6
20260830235427 86 25 0.0 0.0 0.00 0.00 0.00 70 1007.6
20260830235242 86 25 0.0 0.0 0.00 0.00 0.00 70 1007.6
20260830235218 86 24 0.0 0.0 0.00 0.00 0.00 70 1007.6
20260830235041 86 93 0.0 0.0 0.00 0.00 0.00 70 1007.5
20260830235034 86 24 0.0 0.0 0.00 0.00 0.00 69 1007.5
20260830235000 86 18 0.0 0.0 0.00 0.00 0.00 70 1007.6
20260830234610 86 1 0.0 0.0 0.00 0.00 0.00 70 1007.5
20260830234417 86 32 0.0 0.9 0.00 0.00 0.00 70 1007.6
20260830234412 86 34 0.0 0.0 0.00 0.00 0.00 71 1007.5
20260830234235 86 34 0.0 0.0 0.00 0.00 0.00 70 1007.6
20260830234035 86 52 0.0 1.7 0.00 0.00 0.00 70 1007.8
20260830234025 86 159 0.0 0.9 0.00 0.00 0.00 70 1007.8
20260830233955 86 54 0.0 1.7 0.00 0.00 0.00 70 1007.6
20260830233605 86 169 0.0 2.6 0.00 0.00 0.00 71 1007.8
20260830233408 86 166 0.0 4.3 0.00 0.00 0.00 70 1007.9
20260830233234 86 168 0.0 4.3 0.00 0.00 0.00 70 1007.6
20260830233209 86 151 0.0 4.3 0.00 0.00 0.00 70 1007.6
20260830233055 86 173 0.0 7.8 0.00 0.00 0.00 70 1007.8
20260830233036 86 175 0.0 7.8 0.00 0.00 0.00 70 1007.6
20260830233026 86 66 0.0 7.8 0.00 0.00 0.00 71 1007.8
20260830232605 86 173 0.0 7.8 0.00 0.00 0.00 69 1007.8
20260830232402 87 196 0.0 7.8 0.00 0.00 0.00 69 1007.6
20260830232231 87 27 0.0 7.8 0.00 0.00 0.00 69 1007.8
20260830232202 87 154 0.0 7.8 0.00 0.00 0.00 69 1007.8
20260830232003 87 169 0.0 6.1 0.00 0.00 0.00 69 1007.8
20260830231803 87 179 0.0 6.1 0.00 0.00 0.00 69 1007.8
20260830231731 87 158 0.0 6.1 0.00 0.00 0.00 69 1007.9
20260830231701 87 185 0.0 5.2 0.00 0.00 0.00 70 1007.8
20260830231500 87 176 0.0 5.2 0.00 0.00 0.00 70 1007.9
20260830231234 87 147 0.0 5.2 0.00 0.00 0.00 70 1007.8
20260830231159 87 244 0.0 5.2 0.00 0.00 0.00 70 1007.8
20260830231002 87 155 0.0 5.2 0.00 0.00 0.00 70 1007.9
20260830230759 87 182 0.0 5.2 0.00 0.00 0.00 70 1007.9
20260830230730 87 162 0.0 5.2 0.00 0.00 0.00 70 1007.9
20260830230559 87 176 0.0 5.2 0.00 0.00 0.00 70 1007.9
20260830230529 87 175 0.0 5.2 0.00 0.00 0.00 72 1007.9
20260830230525 87 180 0.0 5.2 0.00 0.00 0.00 72 1007.9
20260830230505 87 165 0.0 5.2 0.00 0.00 0.00 71 1007.9
20260830230057 87 180 0.0 2.6 0.00 0.00 0.00 72 1007.9
20260830225757 87 180 0.0 4.3 0.00 0.00 0.00 72 1007.9
20260830225732 87 11 0.0 4.3 0.00 0.00 0.00 72 1007.9
20260830225556 87 351 0.0 5.2 0.00 0.00 0.00 72 1007.8
20260830225529 87 203 0.0 7.8 0.00 0.00 0.00 72 1007.8
20260830225509 87 185 0.0 7.8 0.00 0.00 0.00 72 1007.8
20260830225157 87 204 0.0 7.8 0.00 0.00 0.00 72 1007.8
20260830224955 87 168 0.0 7.8 0.00 0.00 0.00 72 1007.8
20260830224754 87 164 0.0 7.8 0.00 0.00 0.00 72 1007.9
20260830224729 87 168 0.0 7.8 0.00 0.00 0.00 72 1007.9
20260830224656 87 169 0.0 7.8 0.00 0.00 0.00 71 1007.8
20260830224525 87 172 0.0 6.1 0.00 0.00 0.00 72 1007.8
20260830224504 87 161 0.0 6.1 0.00 0.00 0.00 72 1007.9
20260830224155 87 144 0.0 6.1 0.00 0.00 0.00 71 1007.8
20260830223953 87 199 0.0 6.1 0.00 0.00 0.00 71 1007.8
20260830223754 87 169 0.0 7.8 0.00 0.00 0.00 71 1007.6
20260830223730 87 168 0.0 7.8 0.00 0.00 0.00 71 1007.6
20260830223636 87 6 0.0 7.8 0.00 0.00 0.00 71 1007.8
20260830223339 87 165 0.0 7.8 0.00 0.00 0.00 71 1007.5
20260830223237 87 169 0.0 7.8 0.00 0.00 0.00 71 1007.5
20260830223229 87 157 0.0 7.8 0.00 0.00 0.00 71 1007.5
20260830222935 87 164 0.0 7.8 0.00 0.00 0.00 71 1007.5
20260830222729 87 176 0.0 6.1 0.00 0.00 0.00 71 1007.5
20260830222534 87 127 0.0 6.1 0.00 0.00 0.00 71 1007.5
20260830222333 87 162 0.0 6.1 0.00 0.00 0.00 71 1007.5
20260830222231 87 172 0.0 8.7 0.00 0.00 0.00 72 1007.5
20260830222227 87 166 0.0 8.7 0.00 0.00 0.00 71 1007.4
20260830221931 88 178 0.0 8.7 0.00 0.00 0.00 72 1007.4
20260830221839 88 178 0.0 8.7 0.00 0.00 0.00 72 1007.5
20260830221732 88 178 0.0 8.7 0.00 0.00 0.00 72 1007.5
20260830221504 88 155 0.0 8.7 0.00 0.00 0.00 72 1007.5
20260830221302 88 151 0.0 8.7 0.00 0.00 0.00 71 1007.5
20260830221208 88 180 0.0 6.1 0.00 0.00 0.00 72 1007.5
20260830221102 88 173 0.0 4.3 0.00 0.00 0.00 72 1007.5
20260830220902 88 161 0.0 5.2 0.00 0.00 0.00 72 1007.5
20260830220708 88 213 0.0 5.2 0.00 0.00 0.00 73 1007.5
20260830220702 88 192 0.0 5.2 0.00 0.00 0.00 73 1007.5
20260830220559 88 183 0.0 5.2 0.00 0.00 0.00 72 1007.4
20260830220255 88 39 0.0 5.2 0.00 0.00 0.00 72 1007.5
20260830220207 88 32 0.0 5.2 0.00 0.00 0.00 71 1007.6
20260830220155 88 47 0.0 5.2 0.00 0.00 0.00 70 1007.6
20260830215853 89 0 0.0 4.3 0.00 0.00 0.00 71 1007.6
20260830215706 89 147 0.0 4.3 0.00 0.00 0.00 70 1007.5
20260830215658 89 145 0.0 4.3 0.00 0.00 0.00 70 1007.5
20260830215507 90 166 0.0 5.2 0.00 0.00 0.00 68 1007.5
20260830215459 89 3 0.0 3.5 0.00 0.00 0.00 69 1007.4
20260830215433 90 196 0.0 5.2 0.00 0.00 0.00 68 1007.5
20260830215156 90 258 0.0 5.2 0.00 0.00 0.00 68 1007.5
20260830215004 90 200 0.0 5.2 0.00 0.00 0.00 68 1007.5
20260830214959 90 202 0.0 5.2 0.00 0.00 0.00 68 1007.5
20260830214945 90 192 0.0 5.2 0.00 0.00 0.00 68 1007.4
20260830214457 90 243 0.0 5.2 0.00 0.00 0.00 69 1007.5
20260830214255 90 63 0.0 5.2 0.00 0.00 0.00 71 1007.5
20260830214204 90 24 0.0 5.2 0.00 0.00 0.00 68 1007.5
20260830214055 90 241 0.0 5.2 0.00 0.00 0.00 70 1007.5
20260830214008 89 192 0.0 5.2 0.00 0.00 0.00 71 1007.5
20260830214003 89 195 0.0 5.2 0.00 0.00 0.00 71 1007.5
20260830213946 89 106 0.0 5.2 0.00 0.00 0.00 70 1007.5
20260830213455 89 164 0.0 5.2 0.00 0.00 0.00 70 1007.5
20260830213356 89 20 0.0 4.3 0.00 0.00 0.00 68 1007.5
20260830213207 90 56 0.0 4.3 0.00 0.00 0.00 68 1007.5
20260830213056 90 31 0.0 4.3 0.00 0.00 0.00 69 1007.5
20260830212957 90 73 0.0 4.3 0.00 0.00 0.00 68 1007.5
20260830212945 90 31 0.0 4.3 0.00 0.00 0.00 69 1007.5
20260830212655 90 68 0.0 4.3 0.00 0.00 0.00 70 1007.5
20260830212453 90 41 0.0 3.5 0.00 0.00 0.00 69 1007.5
20260830212358 90 63 0.0 3.5 0.00 0.00 0.00 70 1007.4
20260830212202 90 39 0.0 4.3 0.00 0.00 0.00 70 1007.5
20260830212054 90 21 0.0 5.2 0.00 0.00 0.00 68 1007.4
20260830211958 90 37 0.0 6.1 0.00 0.00 0.00 70 1007.6
20260830211942 90 39 0.0 6.1 0.00 0.00 0.00 71 1007.5
20260830211655 89 38 0.0 6.1 0.00 0.00 0.00 70 1007.6
20260830211549 89 38 0.0 6.1 0.00 0.00 0.00 71 1007.6
20260830211253 89 27 0.0 6.1 0.00 0.00 0.00 70 1007.6
20260830211202 89 30 0.0 6.1 0.00 0.00 0.00 69 1007.8
20260830211053 89 31 0.0 6.1 0.00 0.00 0.00 69 1007.8
20260830210952 89 0 0.0 4.3 0.00 0.00 0.00 69 1007.8
20260830210654 90 207 0.0 4.3 0.00 0.00 0.00 69 1007.9
20260830210454 89 31 0.0 4.3 0.00 0.00 0.00 69 1007.9
20260830210253 89 188 0.0 8.7 0.00 0.00 0.00 69 1007.9
20260830210200 89 212 0.0 8.7 0.00 0.00 0.00 68 1007.9
20260830210153 89 188 0.0 8.7 0.00 0.00 0.00 69 1007.8
20260830205854 89 321 0.0 8.7 0.00 0.00 0.00 70 1007.9
20260830205702 89 42 0.0 8.7 0.00 0.00 0.00 70 1007.9
20260830205655 89 116 0.0 8.7 0.00 0.00 0.00 69 1007.9
20260830205553 89 86 0.0 8.7 0.00 0.00 0.00 71 1007.8
20260830205253 89 93 0.0 6.1 0.00 0.00 0.00 70 1007.9
20260830205158 89 161 0.0 6.1 0.00 0.00 0.00 73 1007.9
20260830205055 89 27 0.0 5.2 0.00 0.00 0.00 75 1007.9
20260830204855 89 18 0.0 5.2 0.00 0.00 0.00 73 1007.9
20260830204755 89 31 0.0 2.6 0.00 0.00 0.00 74 1007.9
20260830204659 89 63 0.0 4.3 0.00 0.00 0.00 74 1007.9
20260830204457 88 157 0.0 5.2 0.00 0.00 0.00 73 1007.9
20260830204256 88 164 0.0 5.2 0.00 0.00 0.00 74 1007.9
20260830204156 88 63 0.0 5.2 0.00 0.00 0.00 73 1007.9
20260830204056 88 238 0.0 5.2 0.00 0.00 0.00 74 1008.0
20260830203956 88 238 0.0 8.7 0.00 0.00 0.00 74 1008.1
20260830203657 88 28 0.0 8.7 0.00 0.00 0.00 74 1008.1
20260830203555 88 87 0.0 8.7 0.00 0.00 0.00 75 1008.1
20260830203444 88 7 0.0 8.7 0.00 0.00 0.00 75 1008.2
20260830203427 88 24 0.0 8.7 0.00 0.00 0.00 75 1008.1
20260830203055 88 49 0.0 8.7 0.00 0.00 0.00 75 1008.2
20260830202855 88 24 0.0 8.7 0.00 0.00 0.00 75 1008.3
20260830202656 87 31 0.0 8.7 0.00 0.00 0.00 75 1008.2
20260830202554 87 30 0.0 7.8 0.00 0.00 0.00 74 1008.3
20260830202458 88 31 0.0 9.6 0.00 0.00 0.00 73 1008.3
20260830202447 88 10 0.0 9.6 0.00 0.00 0.00 74 1008.3
20260830202427 88 32 0.0 7.8 0.00 0.00 0.00 75 1008.3
20260830201855 87 49 0.0 9.6 0.00 0.00 0.00 75 1008.2
20260830201656 87 20 0.0 9.6 0.00 0.00 0.00 75 1008.3
20260830201500 87 27 0.0 5.2 0.00 0.00 0.00 75 1008.4
20260830201455 87 334 0.0 9.6 0.00 0.00 0.00 75 1008.4
20260830201445 87 32 0.0 5.2 0.00 0.00 0.00 77 1008.4
20260830201424 87 1 0.0 8.7 0.00 0.00 0.00 75 1008.5
20260830200855 87 28 0.0 2.6 0.00 0.00 0.00 75 1008.5
20260830200817 87 0 0.0 0.0 0.00 0.00 0.00 74 1008.5
20260830200721 0 0.0 0.0 0.00 0.00 0.00
20260830200709 87 0 0.0 0.0 0.00 0.00 0.00 74 1008.5
20260830200701 0 0.0 0.0 0.00 0.00 0.00
20260830200307 0 0.0 0.0 0.00 0.00 0.00
20260830200108 0 0.0 0.0 0.00 0.00 0.00
20260830200013 0 0.0 0.0 0.00 0.00 0.00
20260830195906 0 0.0 0.0 0.00 0.00 0.00
20260830195658 0 0.0 0.0 0.00 0.00 0.00
20260830195635 0 0.0 0.0 0.00 0.00 0.00
20260830195609 0 0.0 0.0 0.00 0.00 0.00 1008.4
20260830195234 0 0.0 0.0 0.00 0.00 0.00 1008.4
20260830195048 0 0.0 0.0 0.00 0.00 0.00 1008.4
20260830194836 85 38 0.0 4.3 0.00 0.00 0.00 78 1008.4
20260830194607 85 38 0.0 5.2 0.00 0.00 0.00 78 1008.4
20260830194511 85 38 0.0 5.2 0.00 0.00 0.00 78 1008.4
20260830194331 85 38 0.0 5.2 0.00 0.00 0.00 78 1008.4
20260830194206 85 38 0.0 5.2 0.00 0.00 0.00 78 1008.4
20260830194030 85 38 0.0 5.2 0.00 0.00 0.00 78 1008.5
20260830193829 85 23 0.0 5.2 0.00 0.00 0.00 77 1008.5
20260830193733 85 34 0.0 4.3 0.00 0.00 0.00 77 1008.5
20260830193533 0 237 0.0 4.3 0.00 0.00 0.00 1008.6
20260830193333 0 0.0 0.0 0.00 0.00 0.00 1008.6
20260830193004 0 0.0 0.0 0.00 0.00 0.00
20260830192834 0 0.0 0.0 0.00 0.00 0.00
20260830192802 0 0.0 0.0 0.00 0.00 0.00
20260830192532 0 0.0 0.0 0.00 0.00 0.00
20260830192430 0 0.0 0.0 0.00 0.00 0.00
20260830192305 0 0.0 0.0 0.00 0.00 0.00
20260830192131 0 0.0 0.0 0.00 0.00 0.00
20260830191931 0 0.0 0.0 0.00 0.00 0.00 1008.3
20260830191734 0 0.0 0.0 0.00 0.00 0.00 1008.3